TimeCDT,TemperatureF,Dew PointF,Humidity,Sea Level PressureIn,VisibilityMPH,Wind Direction,Wind SpeedMPH,Gust SpeedMPH,PrecipitationIn,Events,Conditions,WindDirDegrees,DateUTC
12:53 AM,46.9,37.9,71,29.82,7.0,Calm,Calm,-,N/A,,Overcast,0,2014-04-07 05:53:00
1:53 AM,46.0,37.9,73,29.80,8.0,NW,3.5,-,N/A,,Mostly Cloudy,320,2014-04-07 06:53:00
2:53 AM,44.1,37.0,76,29.78,8.0,NNW,5.8,-,N/A,,Scattered Clouds,340,2014-04-07 07:53:00
3:53 AM,42.1,37.0,82,29.78,7.0,NW,4.6,-,N/A,,Mostly Cloudy,310,2014-04-07 08:53:00
4:53 AM,42.1,37.9,85,29.79,7.0,Calm,Calm,-,N/A,,Overcast,0,2014-04-07 09:53:00
5:53 AM,44.1,37.9,79,29.81,7.0,Calm,Calm,-,N/A,,Overcast,0,2014-04-07 10:53:00
6:53 AM,44.1,39.0,82,29.82,8.0,WSW,3.5,-,N/A,,Overcast,250,2014-04-07 11:53:00
7:53 AM,43.0,39.0,86,29.84,8.0,SSW,3.5,-,N/A,,Mostly Cloudy,200,2014-04-07 12:53:00
8:53 AM,50.0,39.9,68,29.85,8.0,WNW,6.9,-,N/A,,Overcast,290,2014-04-07 13:53:00
9:53 AM,53.1,41.0,64,29.85,9.0,NW,11.5,-,N/A,,Overcast,320,2014-04-07 14:53:00
10:53 AM,57.0,44.1,62,29.85,10.0,NW,10.4,-,N/A,,Mostly Cloudy,320,2014-04-07 15:53:00
11:53 AM,61.0,43.0,52,29.85,10.0,NW,17.3,24.2,N/A,,Mostly Cloudy,320,2014-04-07 16:53:00
12:53 PM,61.0,44.1,54,29.86,10.0,NNW,24.2,28.8,N/A,,Mostly Cloudy,340,2014-04-07 17:53:00
1:53 PM,61.0,43.0,52,29.85,10.0,NNW,27.6,34.5,0.00,,Overcast,330,2014-04-07 18:53:00
2:53 PM,60.1,42.1,51,29.86,10.0,North,21.9,-,N/A,,Mostly Cloudy,350,2014-04-07 19:53:00
3:53 PM,61.0,37.9,42,29.85,10.0,NNE,20.7,32.2,N/A,,Scattered Clouds,20,2014-04-07 20:53:00
4:53 PM,60.1,39.0,46,29.85,10.0,North,11.5,24.2,0.00,,Mostly Cloudy,10,2014-04-07 21:53:00
5:53 PM,62.1,37.0,39,29.87,10.0,North,16.1,-,N/A,,Mostly Cloudy,350,2014-04-07 22:53:00
6:53 PM,54.0,39.0,57,29.92,10.0,NW,27.6,35.7,N/A,,Mostly Cloudy,310,2014-04-07 23:53:00
7:53 PM,53.1,37.0,55,29.91,10.0,NW,10.4,-,N/A,,Mostly Cloudy,310,2014-04-08 00:53:00
8:53 PM,54.0,37.0,53,29.93,10.0,WNW,10.4,-,N/A,,Mostly Cloudy,300,2014-04-08 01:53:00
9:53 PM,51.1,37.9,61,29.95,10.0,WNW,12.7,-,N/A,,Scattered Clouds,300,2014-04-08 02:53:00
10:53 PM,50.0,37.0,61,29.96,10.0,NW,17.3,-,N/A,,Partly Cloudy,310,2014-04-08 03:53:00
11:53 PM,50.0,37.0,61,29.97,10.0,NNW,20.7,-,N/A,,Partly Cloudy,340,2014-04-08 04:53:00